Location: Unspecified
(0.0000°N, 0.0000°E)
Time: 11:53:08
(UTC+02:00)

Haruka - Visible Passes

Search period start: 30 August 2015 00:00
Search period end: 09 September 2015 00:00
Orbit: 529 x 21238 km, 31.3° (Epoch: 30 August)

Date Brightness Start Highest point End Pass type
(mag) Time Alt. Az. Time Alt. Az. Time Alt. Az.
30 Aug 8.4 03:43:13 10° WNW 08:23:59 64° NNE 08:47:04 10° ESE visible
30 Aug 6.9 21:51:05 10° SW 22:05:50 88° SE 02:21:35 10° ENE visible
31 Aug 7.6 05:26:32 10° WNW 09:41:47 82° NNE 09:55:38 10° ESE visible
31 Aug 7.8 22:59:24 10° WSW 23:23:06 72° NNW 04:02:01 10° ENE visible
01 Sep 6.8 08:31:16 10° NW 10:53:30 71° SW 11:03:06 10° SE visible
02 Sep 8.1 00:09:16 10° W 00:56:21 59° NNW 05:24:47 10° ENE visible
03 Sep 8.5 01:21:48 10° W 05:06:27 51° N 06:40:00 10° E visible
03 Sep 6.1 19:49:29 10° SSW 19:58:01 49° SE 21:13:53 10° ENE visible
04 Sep 8.9 02:39:25 10° WNW 07:17:46 61° NNE 07:51:21 10° E visible
04 Sep 6.5 20:56:20 10° SW 21:07:47 79° SE 00:41:56 10° ENE visible
05 Sep 8.0 04:08:05 10° WNW 08:42:03 76° NNE 09:00:35 10° ESE visible
05 Sep 7.3 22:04:07 10° WSW 22:21:21 77° NNW 02:52:17 10° ENE visible
06 Sep 7.2 06:08:21 10° WNW 09:56:22 82° SW 10:08:29 10° SE visible
06 Sep 8.0 23:13:09 10° W 23:43:40 62° NNW 04:23:30 10° ENE visible
08 Sep 8.3 00:24:11 10° W 01:40:06 52° N 05:42:05 10° E visible
